Grand Marais, MN

9:08 AM CST on December 07, 2019 (GMT -0600)
Grand Marais

Weather History for KGNA - November, 2019

Change the Weather History Date:

Sunday, November 17, 2019

  Actual Average (KCKC) Record (KCKC)
Temperature  
Mean Temperature 36 °F -  
Max Temperature 39 °F 30 °F 57 °F (2001)
Min Temperature 34 °F 19 °F 0 °F (2005)
Degree Days  
Heating Degree Days 28    
Moisture  
Dew Point 33 °F    
Average Humidity 87    
Maximum Humidity 97    
Minimum Humidity 73    
Precipitation  
Precipitation 0.14 in - - ()
Sea Level Pressure  
Sea Level Pressure 29.84 in    
Wind  
Wind Speed 12 mph (SW)    
Max Wind Speed 18 mph    
Max Gust Speed -    
Averages and records for this station are not official NWS values.
T = Trace of Precipitation, MM = Missing Value Source: NWS Daily Summary

Daily Weather History Graph

Daily Weather History Graph

Search for Another Location

Airport or City:

Astronomy

Nov. 17, 2019 Rise Set
Actual Time 7:09 AM CST 4:22 PM CST
Civil Twilight 6:35 AM CST 4:56 PM CST
Nautical Twilight 5:58 AM CST 5:33 PM CST
Astronomical Twilight 5:21 AM CST 6:10 PM CST
Moon 8:53 PM CST (11/17) 12:01 PM CST (11/17)
Length of Visible Light 10h 20m
Length of Day
9h 12m
Waning Gibbous, 73% of the Moon is Illuminated
Nov 17
Waning Gibbous
Nov 19
Last Quarter
Nov 26
New
Dec 4
First Quarter
Dec 11
Full

Hourly Weather History & Observations

Time (CST) Temp. Windchill Dew Point Humidity Pressure Visibility Wind Dir Wind Speed Gust Speed Precip Events Conditions
12:56 AM 39.9 °F 31.1 °F 32.0 °F 73% 29.96 in - SSW 17.3 mph - N/A   Unknown
1:56 AM 37.0 °F 27.4 °F 33.1 °F 86% 29.95 in - SW 17.3 mph - 0.02 in   Unknown
2:56 AM 37.0 °F 28.1 °F 34.0 °F 89% 29.93 in - SW 15.0 mph - 0.04 in   Unknown
3:56 AM 36.0 °F 26.7 °F 34.0 °F 93% 29.90 in - SSW 15.0 mph - 0.01 in   Unknown
4:56 AM 37.0 °F 27.0 °F 34.0 °F 89% 29.89 in - SSW 18.4 mph - 0.01 in   Unknown
5:56 AM 37.0 °F 28.1 °F 34.0 °F 89% 29.87 in - SSW 15.0 mph - 0.01 in   Unknown
6:56 AM 37.0 °F 27.0 °F 34.0 °F 89% 29.85 in - SW 18.4 mph - 0.02 in   Unknown
7:56 AM 37.0 °F 27.7 °F 35.1 °F 93% 29.85 in - SW 16.1 mph - 0.01 in   Unknown
8:56 AM 36.0 °F 33.3 °F 35.1 °F 97% 29.85 in - Variable 3.5 mph - 0.02 in   Unknown
9:56 AM 36.0 °F 33.3 °F 35.1 °F 97% 29.84 in - West 3.5 mph - N/A   Unknown
11:56 AM 37.0 °F 34.5 °F 36.0 °F 96% 29.81 in - WSW 3.5 mph - N/A   Unknown
1:56 PM 37.9 °F 33.5 °F 35.1 °F 89% 29.79 in - WSW 5.8 mph - N/A   Unknown
2:56 PM 37.0 °F 33.3 °F 36.0 °F 96% 29.79 in - WSW 4.6 mph - N/A   Unknown
3:56 PM 37.0 °F 33.3 °F 35.1 °F 93% 29.80 in - West 4.6 mph - N/A   Unknown
4:56 PM 37.0 °F - 32.0 °F 82% 29.81 in - Calm Calm - N/A   Unknown
5:56 PM 36.0 °F 32.1 °F 30.9 °F 82% 29.81 in - WSW 4.6 mph - N/A   Unknown
6:56 PM 36.0 °F 32.1 °F 30.9 °F 82% 29.81 in - West 4.6 mph - N/A   Unknown
7:56 PM 35.1 °F 31.0 °F 30.9 °F 85% 29.79 in - WSW 4.6 mph - N/A   Unknown
8:56 PM 34.0 °F - 30.0 °F 85% 29.80 in - Calm Calm - N/A   Unknown
9:56 PM 35.1 °F - 28.9 °F 78% 29.80 in - North - - N/A   Unknown
10:56 PM 35.1 °F 32.2 °F 28.9 °F 78% 29.79 in - Variable 3.5 mph - N/A   Unknown
11:56 PM 35.1 °F 32.2 °F 28.9 °F 78% 29.79 in - Variable 3.5 mph - N/A   Unknown